Location: Marne
(34.0056°N, 117.9064°W)
Time: 01:27:42
(UTC+00:00)

Cosmos 2218 Rocket - Pass Details

Date: 18 January 2020
Orbit: 956 x 1006 km, 82.9° (Epoch: 19 February)

Event Time Altitude Azimuth Distance (km) Brightness Sun altitude
Rises 02:57:22 0° 185° (S) 3,663 7.2 -22.6°
Reaches altitude 10° 02:59:51 10° 186° (S) 2,725 6.5 -23.1°
Maximum altitude 03:06:07 86° 273° (W) 998 4.0 -24.3°
Drops below altitude 10° 03:12:31 10° 5° (N) 2,773 6.2 -25.7°
Sets 03:15:04 0° 6° (N) 3,731 6.9 -26.2°
